Hourly Weather Rusniv

Today, 22 April, Thursday

Time Temperature Precipitation Wind Pressure Humidity
00:00 +7°C° 0 mm 3 mps 739 mmHg 89%
01:00 +5°C° 0 mm 3 mps 739 mmHg 90%
02:00 +5°C° 0 mm 3 mps 739 mmHg 92%
03:00 +5°C° 0 mm 3 mps 739 mmHg 91%
04:00 +5°C° 0 mm 3 mps 739 mmHg 91%
05:00 +5°C° 0 mm 3 mps 739 mmHg 90%
06:00 +6°C° 0.1 mm 4 mps 739 mmHg 87%
07:00 +7°C° 0.1 mm 5 mps 739 mmHg 84%
08:00 +8°C° 0.1 mm 5 mps 739 mmHg 81%
09:00 +9°C° 0.2 mm 5 mps 739 mmHg 78%
10:00 +10°C° 0.2 mm 6 mps 739 mmHg 75%
11:00 +10°C° 0.2 mm 6 mps 739 mmHg 72%
12:00 +9°C° 0.6 mm 6 mps 740 mmHg 75%
13:00 +8°C° 0.6 mm 6 mps 740 mmHg 78%
14:00 +7°C° 0.6 mm 5 mps 740 mmHg 81%
15:00 +7°C° 0.1 mm 5 mps 740 mmHg 82%
16:00 +6°C° 0.1 mm 5 mps 740 mmHg 82%
17:00 +5°C° 0.1 mm 4 mps 741 mmHg 82%
18:00 +4°C° 0.1 mm 4 mps 741 mmHg 83%
19:00 +4°C° 0.1 mm 3 mps 741 mmHg 84%
20:00 +4°C° 0.1 mm 3 mps 741 mmHg 86%
21:00 +3°C° 0 mm 3 mps 741 mmHg 85%
22:00 +2°C° 0 mm 3 mps 741 mmHg 84%
23:00 +2°C° 0 mm 3 mps 742 mmHg 83%

Tomorrow, 23 April, Friday

Time Temperature Precipitation Wind Pressure Humidity
00:00 +1°C° 0 mm 3 mps 742 mmHg 83%
01:00 +1°C° 0 mm 3 mps 742 mmHg 83%
02:00 +1°C° 0 mm 3 mps 742 mmHg 82%
03:00 0°C° 0 mm 3 mps 742 mmHg 85%
04:00 0°C° 0 mm 3 mps 742 mmHg 87%
05:00 -1°C° 0 mm 3 mps 742 mmHg 89%
06:00 0°C° 0 mm 4 mps 743 mmHg 82%
07:00 +1°C° 0 mm 5 mps 743 mmHg 75%
08:00 +2°C° 0 mm 5 mps 743 mmHg 68%
09:00 +3°C° 0 mm 6 mps 743 mmHg 62%
10:00 +4°C° 0 mm 6 mps 743 mmHg 56%
11:00 +6°C° 0 mm 7 mps 743 mmHg 50%
12:00 +7°C° 0.2 mm 6 mps 743 mmHg 50%
13:00 +7°C° 0.2 mm 6 mps 743 mmHg 50%
14:00 +7°C° 0.2 mm 6 mps 743 mmHg 50%
15:00 +7°C° 0.2 mm 6 mps 743 mmHg 51%
16:00 +7°C° 0.2 mm 6 mps 743 mmHg 53%
17:00 +7°C° 0.2 mm 5 mps 743 mmHg 55%
18:00 +5°C° 0 mm 4 mps 743 mmHg 62%
19:00 +4°C° 0 mm 4 mps 743 mmHg 69%
20:00 +3°C° 0 mm 3 mps 743 mmHg 76%
21:00 +1°C° 0.1 mm 4 mps 743 mmHg 80%
22:00 +1°C° 0.1 mm 5 mps 743 mmHg 85%
23:00 +1°C° 0.1 mm 6 mps 743 mmHg 89%

Day after tomorrow, 24 April, Saturday

Time Temperature Precipitation Wind Pressure Humidity
00:00 -1°C° 0.1 mm 6 mps 743 mmHg 89%
01:00 -2°C° 0.1 mm 6 mps 744 mmHg 89%
02:00 -2°C° 0.1 mm 5 mps 744 mmHg 89%
03:00 -4°C° 0 mm 5 mps 744 mmHg 89%
04:00 -4°C° 0 mm 5 mps 745 mmHg 90%
05:00 -4°C° 0 mm 5 mps 745 mmHg 90%
06:00 -2°C° 0 mm 5 mps 745 mmHg 82%
07:00 0°C° 0 mm 5 mps 745 mmHg 73%
08:00 +1°C° 0 mm 5 mps 745 mmHg 65%
09:00 +2°C° 0.1 mm 5 mps 745 mmHg 58%
10:00 +4°C° 0.1 mm 6 mps 745 mmHg 51%
11:00 +5°C° 0.1 mm 6 mps 745 mmHg 44%
12:00 +5°C° 0 mm 6 mps 745 mmHg 43%
13:00 +7°C° 0 mm 6 mps 745 mmHg 42%
14:00 +7°C° 0 mm 6 mps 745 mmHg 40%
15:00 +7°C° 0 mm 5 mps 745 mmHg 42%
16:00 +7°C° 0 mm 5 mps 745 mmHg 44%
17:00 +7°C° 0 mm 5 mps 744 mmHg 46%
18:00 +6°C° 0 mm 4 mps 744 mmHg 54%
19:00 +4°C° 0 mm 3 mps 744 mmHg 61%
20:00 +3°C° 0 mm 3 mps 744 mmHg 69%
21:00 +3°C° 0 mm 3 mps 744 mmHg 71%
22:00 +2°C° 0 mm 3 mps 744 mmHg 74%
23:00 +2°C° 0 mm 3 mps 744 mmHg 77%

25 April, Sunday

Time Temperature Precipitation Wind Pressure Humidity
00:00 +2°C° 0.2 mm 3 mps 744 mmHg 83%
01:00 +2°C° 0.2 mm 2 mps 744 mmHg 88%
02:00 +2°C° 0.2 mm 2 mps 744 mmHg 94%
03:00 +2°C° 0 mm 2 mps 744 mmHg 94%
04:00 +1°C° 0 mm 3 mps 744 mmHg 95%
05:00 +1°C° 0 mm 3 mps 744 mmHg 95%
06:00 +1°C° 0.2 mm 3 mps 744 mmHg 89%
07:00 0°C° 0.2 mm 4 mps 744 mmHg 83%
08:00 0°C° 0.2 mm 4 mps 745 mmHg 76%
09:00 +1°C° 0 mm 4 mps 745 mmHg 69%
10:00 +2°C° 0 mm 5 mps 745 mmHg 62%
11:00 +3°C° 0 mm 5 mps 745 mmHg 55%
12:00 +3°C° 0.2 mm 5 mps 745 mmHg 54%
13:00 +3°C° 0.2 mm 5 mps 745 mmHg 54%
14:00 +5°C° 0.2 mm 5 mps 745 mmHg 53%
15:00 +5°C° 0.2 mm 5 mps 745 mmHg 53%
16:00 +5°C° 0.2 mm 5 mps 745 mmHg 53%
17:00 +5°C° 0.2 mm 5 mps 745 mmHg 53%
18:00 +4°C° 0.1 mm 4 mps 744 mmHg 60%
19:00 +3°C° 0.1 mm 4 mps 744 mmHg 67%
20:00 +2°C° 0.1 mm 3 mps 744 mmHg 74%
21:00 +1°C° 0.1 mm 3 mps 744 mmHg 77%
22:00 +1°C° 0.1 mm 3 mps 744 mmHg 80%
23:00 0°C° 0.1 mm 3 mps 744 mmHg 84%

26 April, Monday

Time Temperature Precipitation Wind Pressure Humidity
00:00 0°C° 0 mm 3 mps 744 mmHg 85%
01:00 -1°C° 0 mm 3 mps 744 mmHg 87%
02:00 -1°C° 0 mm 3 mps 744 mmHg 89%
03:00 -2°C° 0 mm 3 mps 744 mmHg 89%
04:00 -2°C° 0 mm 3 mps 744 mmHg 90%
05:00 -4°C° 0 mm 3 mps 744 mmHg 90%
06:00 -2°C° 0 mm 4 mps 744 mmHg 80%
07:00 -1°C° 0 mm 4 mps 745 mmHg 70%
08:00 0°C° 0 mm 5 mps 745 mmHg 60%
09:00 +1°C° 0 mm 4 mps 745 mmHg 54%
10:00 +4°C° 0 mm 4 mps 745 mmHg 48%
11:00 +5°C° 0 mm 4 mps 745 mmHg 43%
12:00 +5°C° 0 mm 4 mps 744 mmHg 43%
13:00 +6°C° 0 mm 4 mps 744 mmHg 44%
14:00 +6°C° 0 mm 4 mps 744 mmHg 45%
15:00 +6°C° 0.1 mm 4 mps 743 mmHg 49%
16:00 +6°C° 0.1 mm 4 mps 743 mmHg 54%
17:00 +5°C° 0.1 mm 4 mps 743 mmHg 59%
18:00 +4°C° 0.1 mm 3 mps 743 mmHg 64%
19:00 +4°C° 0.1 mm 2 mps 743 mmHg 70%
20:00 +4°C° 0.1 mm 1 mps 743 mmHg 75%
21:00 +3°C° 0 mm 1 mps 743 mmHg 76%
22:00 +2°C° 0 mm 2 mps 743 mmHg 77%
23:00 +1°C° 0 mm 2 mps 743 mmHg 77%

27 April, Tuesday

Time Temperature Precipitation Wind Pressure Humidity
00:00 +1°C° 0 mm 2 mps 743 mmHg 79%
01:00 +1°C° 0 mm 2 mps 743 mmHg 80%
02:00 -1°C° 0 mm 2 mps 743 mmHg 81%
03:00 -1°C° 0 mm 2 mps 743 mmHg 81%
04:00 -1°C° 0 mm 2 mps 742 mmHg 81%
05:00 -1°C° 0 mm 2 mps 742 mmHg 81%
06:00 +2°C° 0 mm 2 mps 742 mmHg 76%
07:00 +3°C° 0 mm 3 mps 742 mmHg 70%
08:00 +5°C° 0 mm 3 mps 741 mmHg 64%
09:00 +6°C° 0 mm 4 mps 741 mmHg 60%
10:00 +7°C° 0 mm 4 mps 741 mmHg 55%
11:00 +9°C° 0 mm 5 mps 740 mmHg 50%
12:00 +9°C° 0 mm 5 mps 739 mmHg 50%
13:00 +10°C° 0 mm 5 mps 739 mmHg 49%
14:00 +12°C° 0 mm 5 mps 738 mmHg 49%
15:00 +12°C° 0 mm 5 mps 737 mmHg 51%
16:00 +12°C° 0 mm 5 mps 736 mmHg 54%
17:00 +12°C° 0 mm 5 mps 736 mmHg 57%
18:00 +11°C° 0 mm 4 mps 735 mmHg 63%
19:00 +8°C° 0 mm 4 mps 735 mmHg 70%
20:00 +8°C° 0 mm 3 mps 734 mmHg 76%
21:00 +7°C° 0.2 mm 4 mps 734 mmHg 81%
22:00 +7°C° 0.2 mm 4 mps 733 mmHg 85%
23:00 +7°C° 0.2 mm 5 mps 732 mmHg 89%
Show more